[[{"header":{"parameterUnit":"m.s-1","parameterCategory":1,"la1":30.2991,"la2":30.254,"lo1":-89.0895,"lo2":-89.0444,"dy":0.0017,"dx":0.0017,"nx":28,"ny":28,"refTime":"2026-01-05T03:00:00:Z","depth":0,"parameterNumber":2,"parameterNumberName":"U-component_of_WINDS"},"data":[0,0,0,0,0,0,0,0,0,0,0,0,0,0,0,0,0,0,0,0,0,0,0,0,0,0,0,0,0,0,0,0,0,0,0,0,0,0,0,0,0,0,0,0,0,0,0,0,0,0,0,0,0,0,0,0,0,0,0.6824,0.6824,0,0.6881,0.6882,0.6883,0.691,0.691,0.691,0.691,0.6971,0.6973,0.6974,0,0,0,0,0,0,0,0,0,0,0,0,0,0.6739,0.674,0.6824,0.6824,0.6825,0.6881,0.6882,0.6883,0.691,0.691,0.691,0.691,0.697,0.6972,0.6974,0,0,0,0,0,0,0,0,0,0,0,0,0,0.6784,0.6741,0.6824,0.6845,0.6848,0.6881,0.6882,0.6883,0.691,0.691,0.691,0.691,0.697,0.6972,0.6975,0.6991,0,0,0.6982,0.6983,0,0,0,0,0,0,0,0,0.6781,0.6787,0.6841,0.6844,0.6847,0.6888,0.6875,0.6919,0.691,0.6886,0.691,0.691,0.6944,0.6948,0.6959,0.6994,0.6997,0.6983,0.6984,0.6985,0.6986,0,0,0,0,0,0,0,0.6778,0.6785,0.6847,0.6842,0.6845,0.6853,0.6859,0.6883,0.6915,0.6888,0.6891,0.6897,0.6945,0.6957,0.6961,0.6998,0.6982,0.6985,0.6986,0.6987,0.705,0.705,0,0,0,0,0,0,0.6771,0.6782,0.6845,0.6848,0.6813,0.6854,0.6862,0.6875,0.6915,0.692,0.6897,0.6898,0.6953,0.6958,0.6963,0.6986,0.6985,0.6987,0.6989,0.7049,0.705,0.705,0,0,0,0,0,0,0.6769,0.6777,0.6842,0.6816,0.6825,0.6856,0.6871,0.6876,0.6888,0.6921,0.6927,0.6903,0.6953,0.696,0.6984,0.6988,0.6989,0.6991,0.7049,0.7049,0.705,0.703,0,0,0,0,0,0,0.6767,0.6776,0.6782,0.6816,0.6826,0.6862,0.6871,0.6877,0.6892,0.6894,0.6928,0.6934,0.6953,0.698,0.6987,0.6992,0.6993,0.7049,0.7049,0.705,0.7031,0.703,0.7029,0,0,0,0,0,0.6764,0.6774,0.6782,0.679,0.6834,0.6862,0.6868,0.6889,0.6892,0.6899,0.692,0.6933,0.6986,0.6982,0.699,0.6996,0.7049,0.7049,0.705,0.7031,0.703,0.7029,0,0,0,0,0,0,0.6741,0.6779,0.6788,0.681,0.6832,0.6866,0.6876,0.6887,0.691,0.6911,0.6937,0.6945,0.6967,0.6984,0.6979,0.7014,0.7019,0.7021,0.7002,0.7001,0.7001,0.6996,0.6995,0,0,0,0,0,0.6738,0.6757,0.679,0.6806,0.6817,0.6844,0.6857,0.6871,0.6896,0.6906,0.6929,0.6953,0.6975,0.6989,0.7011,0.7033,0.7041,0.7041,0.704,0.7039,0.704,0.7053,0.7054,0.7051,0.7051,0.7051,0,0,0.6734,0.6757,0.6767,0.6802,0.6821,0.684,0.6852,0.6872,0.6886,0.6909,0.6933,0.6951,0.6979,0.7002,0.7014,0.7017,0.7043,0.7039,0.7038,0.704,0.7054,0.7054,0.7054,0.7051,0.7051,0.7051,0,0,0.6735,0.6754,0.6769,0.6788,0.6817,0.6835,0.6838,0.6871,0.6883,0.6908,0.6925,0.6943,0.6981,0.7001,0.7016,0.7024,0.7036,0.7031,0.7026,0.7039,0.7039,0.7039,0.7043,0.7043,0.7032,0.7032,0.7032,0,0.6725,0.6754,0.6776,0.6795,0.681,0.6831,0.6847,0.6865,0.6899,0.6909,0.6912,0.696,0.6981,0.7009,0.7011,0.7022,0.7028,0.7027,0.7037,0.7038,0.7038,0.7042,0.7043,0.7031,0.7031,0.7031,0.7031,0,0.6741,0.6761,0.6771,0.6803,0.6819,0.6836,0.6862,0.6876,0.6889,0.6907,0.6932,0.6957,0.6985,0.6993,0.7006,0.7023,0.7024,0.7032,0.7037,0.7037,0.7041,0.7042,0.703,0.703,0.703,0.703,0,0,0.673,0.6774,0.6777,0.6792,0.6825,0.6841,0.686,0.6886,0.6898,0.6921,0.6938,0.6969,0.6976,0.6993,0.7009,0.702,0.7025,0.7026,0.7027,0.7025,0.7046,0.704,0.7041,0.7033,0.7034,0.7034,0.7043,0,0.6735,0.6769,0.679,0.6816,0.6835,0.6855,0.6871,0.6893,0.6911,0.693,0.6949,0.6971,0.6979,0.6989,0.7001,0.7022,0.703,0.7022,0.705,0.7051,0.7042,0.7043,0.7037,0.7044,0.7045,0.7045,0.7045,0,0.6747,0.6769,0.6796,0.6827,0.6836,0.685,0.6877,0.6894,0.692,0.6932,0.6951,0.6967,0.6988,0.6991,0.7021,0.7015,0.7028,0.704,0.7041,0.7045,0.7048,0.7047,0.7047,0.7048,0.7048,0.7048,0.7047,0,0.6736,0.6772,0.6794,0.6806,0.6843,0.6852,0.6868,0.6894,0.6909,0.6932,0.6942,0.6967,0.6981,0.7001,0.7023,0.7024,0.7051,0.7056,0.7062,0.7061,0.7067,0.7067,0.707,0.7075,0.7075,0.7075,0.7075,0,0.674,0.6756,0.6789,0.6802,0.6821,0.6845,0.6863,0.6881,0.6903,0.6921,0.694,0.6956,0.6984,0.7004,0.7022,0.7044,0.705,0.7061,0.7065,0.7059,0.7058,0.7068,0.7069,0.7075,0.7075,0.7075,0.7075,0,0.6731,0.6754,0.6779,0.6811,0.682,0.6832,0.686,0.6874,0.6892,0.6914,0.6921,0.6949,0.6974,0.6998,0.7031,0.7043,0.7064,0.7071,0.7055,0.7058,0.7063,0.7062,0.7073,0.7076,0.7078,0.7078,0.7078,0,0.6733,0.6746,0.6779,0.6792,0.6807,0.6827,0.6842,0.6866,0.6881,0.6912,0.6922,0.6948,0.6969,0.7007,0.7031,0.7056,0.7063,0.7066,0.7067,0.7061,0.7064,0.7063,0.7065,0.7065,0.7065,0.7065,0.7064,0,0.6733,0.6744,0.6764,0.6789,0.6806,0.6827,0.6848,0.6858,0.6886,0.6902,0.6927,0.6943,0.6977,0.7002,0.703,0.7047,0.7061,0.7064,0.7066,0.706,0.7051,0.7056,0.7054,0.7063,0.7063,0.7063,0.7064,0.7064,0.673,0.6742,0.6768,0.679,0.6809,0.6828,0.6843,0.6863,0.6884,0.6912,0.6925,0.695,0.6976,0.7015,0.7032,0.7052,0.7055,0.7059,0.706,0.7061,0.706,0.7048,0.7057,0.7057,0.7057,0.7057,0.7057,0,0.6731,0.6748,0.6769,0.6798,0.6816,0.6827,0.6851,0.6865,0.6887,0.691,0.693,0.6959,0.6983,0.7009,0.7036,0.7047,0.7054,0.7053,0.7052,0.7056,0.7055,0.705,0.7047,0.7047,0.7047,0.7047,0.7047,0.7047,0.6734,0.6755,0.6769,0.68,0.6818,0.6842,0.6855,0.6873,0.6892,0.6923,0.6943,0.6959,0.6984,0.7012,0.7035,0.7042,0.7051,0.7048,0.7057,0.7056,0.7056,0.7057,0.7053,0.705,0.705,0.7057,0.7057,0.7057]},{"header":{"parameterUnit":"m.s-1","parameterCategory":1,"la1":30.2991,"la2":30.254,"lo1":-89.0895,"lo2":-89.0444,"dy":0.0017,"dx":0.0017,"nx":28,"ny":28,"refTime":"2026-01-05T03:00:00:Z","depth":0,"parameterNumber":3,"parameterNumberName":"V-component_of_WINDS"},"data":[0,0,0,0,0,0,0,0,0,0,0,0,0,0,0,0,0,0,0,0,0,0,0,0,0,0,0,0,0,0,0,0,0,0,0,0,0,0,0,0,0,0,0,0,0,0,0,0,0,0,0,0,0,0,0,0,0,0,2.2116,2.2117,0,2.2235,2.2236,2.2238,2.2289,2.2289,2.2289,2.2288,2.2412,2.2416,2.2419,0,0,0,0,0,0,0,0,0,0,0,0,0,2.1933,2.1936,2.2116,2.2117,2.2119,2.2235,2.2237,2.2238,2.2289,2.2289,2.2289,2.2288,2.2411,2.2415,2.242,0,0,0,0,0,0,0,0,0,0,0,0,0,2.2028,2.1937,2.2115,2.2158,2.2163,2.2235,2.2237,2.2239,2.2289,2.2289,2.2289,2.2288,2.241,2.2415,2.242,2.2459,0,0,2.2436,2.2438,0,0,0,0,0,0,0,0,2.2023,2.2035,2.215,2.2155,2.2161,2.2247,2.2218,2.2312,2.2289,2.2241,2.2288,2.2288,2.2358,2.2367,2.239,2.2465,2.247,2.2437,2.244,2.2442,2.2444,0,0,0,0,0,0,0,2.2016,2.203,2.2163,2.2152,2.2158,2.2172,2.2185,2.2236,2.23,2.2245,2.2249,2.2263,2.2361,2.2385,2.2394,2.2472,2.2436,2.2441,2.2444,2.2446,2.2584,2.2585,0,0,0,0,0,0,2.2002,2.2024,2.2159,2.2166,2.209,2.2175,2.219,2.222,2.2299,2.2311,2.2263,2.2265,2.2376,2.2387,2.2398,2.2449,2.2442,2.2447,2.245,2.2584,2.2584,2.2585,0,0,0,0,0,0,2.1998,2.2014,2.2154,2.2097,2.2115,2.2179,2.2212,2.2222,2.2247,2.2313,2.2324,2.2276,2.2377,2.2391,2.2443,2.2454,2.2449,2.2454,2.2583,2.2584,2.2585,2.2551,0,0,0,0,0,0,2.1993,2.2012,2.2027,2.2096,2.2118,2.2197,2.2212,2.2225,2.2255,2.2259,2.2328,2.2339,2.2377,2.2435,2.2449,2.2461,2.2458,2.2582,2.2584,2.2584,2.2552,2.2551,2.255,0,0,0,0,0,2.1986,2.2013,2.2028,2.2044,2.2138,2.2197,2.221,2.2253,2.2256,2.2272,2.2314,2.2337,2.2451,2.244,2.2456,2.247,2.2582,2.2583,2.2584,2.2552,2.2551,2.255,0,0,0,0,0,0,2.1944,2.2023,2.204,2.209,2.2137,2.2206,2.2227,2.225,2.2297,2.2298,2.235,2.2365,2.2413,2.2447,2.2434,2.2512,2.2518,2.2523,2.2488,2.2488,2.2487,2.2479,2.2463,0,0,0,0,0,2.194,2.1981,2.2048,2.2086,2.2109,2.2164,2.2191,2.222,2.227,2.229,2.2337,2.2385,2.2432,2.2462,2.2508,2.2556,2.2573,2.2574,2.2573,2.2572,2.2576,2.2605,2.2606,2.2589,2.2589,2.2589,0,0,2.1934,2.1982,2.2005,2.2079,2.2118,2.216,2.218,2.2223,2.2255,2.2297,2.235,2.2385,2.2443,2.2493,2.2518,2.2523,2.2584,2.2574,2.2572,2.2577,2.2606,2.2607,2.2609,2.259,2.2589,2.2589,0,0,2.1943,2.1983,2.2019,2.2058,2.2118,2.2154,2.2163,2.2229,2.2254,2.2307,2.234,2.2378,2.2457,2.2497,2.2528,2.2552,2.2575,2.2566,2.2562,2.2589,2.2591,2.2592,2.2602,2.2604,2.2569,2.2569,2.2569,0,2.1927,2.1991,2.2035,2.2077,2.2109,2.2148,2.2186,2.2222,2.2293,2.2315,2.2319,2.2419,2.2461,2.2522,2.2527,2.255,2.2563,2.2559,2.2587,2.2589,2.2591,2.2601,2.2604,2.2567,2.2567,2.2568,2.2568,0,2.197,2.2013,2.2036,2.2103,2.2138,2.2177,2.2228,2.2257,2.2283,2.2319,2.2373,2.2424,2.2482,2.2498,2.2524,2.2563,2.2564,2.2577,2.2584,2.259,2.26,2.2604,2.2565,2.2566,2.2566,2.2566,0,0,2.1957,2.2048,2.2055,2.2087,2.2155,2.219,2.2231,2.2287,2.2312,2.236,2.2396,2.2462,2.2474,2.2509,2.2539,2.2563,2.258,2.2573,2.2576,2.2574,2.2627,2.2618,2.2622,2.2595,2.2596,2.2597,2.2623,0,2.1976,2.2051,2.2092,2.2151,2.2192,2.223,2.2266,2.2312,2.2346,2.2387,2.2426,2.2472,2.2484,2.2505,2.253,2.2573,2.2592,2.2571,2.2631,2.2632,2.2616,2.2627,2.2617,2.264,2.2627,2.2628,2.2628,0,2.2009,2.2056,2.2118,2.2182,2.2201,2.2233,2.2288,2.2326,2.2379,2.2402,2.2441,2.2471,2.2516,2.2519,2.2583,2.2568,2.2595,2.2619,2.2621,2.2629,2.2631,2.2636,2.2648,2.2651,2.2635,2.2634,2.2634,0,2.1994,2.2073,2.2121,2.2147,2.2222,2.2243,2.2276,2.2328,2.236,2.2407,2.2428,2.2481,2.251,2.255,2.2594,2.2592,2.2654,2.266,2.2676,2.2674,2.2688,2.2687,2.2705,2.2703,2.2703,2.2703,2.2703,0,2.2013,2.205,2.2116,2.2145,2.2188,2.2234,2.2275,2.2311,2.2357,2.2395,2.243,2.2465,2.2519,2.2561,2.2595,2.2643,2.2656,2.2677,2.2686,2.2675,2.2672,2.2694,2.2694,2.2704,2.2704,2.2703,2.2703,0,2.2004,2.205,2.2104,2.2171,2.2188,2.2217,2.2274,2.2305,2.2341,2.2388,2.2402,2.2459,2.2509,2.2556,2.2624,2.2647,2.2696,2.2707,2.2678,2.2683,2.2696,2.2695,2.273,2.2737,2.2729,2.2729,2.2729,0,2.2013,2.2043,2.2112,2.214,2.2171,2.2215,2.2247,2.2293,2.2325,2.2388,2.2411,2.2464,2.2509,2.2588,2.2636,2.2688,2.2701,2.271,2.2709,2.2697,2.2703,2.2701,2.2705,2.2709,2.2709,2.2709,2.2709,0,2.2025,2.2046,2.209,2.2143,2.218,2.2224,2.2268,2.2289,2.2344,2.2378,2.243,2.2465,2.2534,2.2587,2.2644,2.2678,2.2703,2.2709,2.2715,2.2705,2.2687,2.2698,2.2677,2.2708,2.2708,2.2708,2.2708,2.2708,2.2026,2.2054,2.2108,2.2156,2.2195,2.2236,2.2268,2.2308,2.2352,2.2411,2.2436,2.2489,2.2542,2.2621,2.2655,2.2698,2.2703,2.2712,2.2715,2.2717,2.2715,2.2679,2.2708,2.2708,2.2708,2.2708,2.2708,0,2.2041,2.2077,2.2121,2.2183,2.2221,2.224,2.2291,2.2322,2.2368,2.2414,2.2458,2.2518,2.2569,2.2621,2.2675,2.2699,2.2712,2.2712,2.2711,2.2719,2.2706,2.2696,2.27,2.27,2.27,2.27,2.27,2.27,2.2053,2.2102,2.2129,2.2197,2.2234,2.2285,2.2313,2.2351,2.2389,2.2454,2.2497,2.253,2.2579,2.2637,2.2685,2.2699,2.2717,2.2714,2.2731,2.2719,2.2719,2.272,2.271,2.2718,2.2718,2.2741,2.2741,2.2741]}]]